SV8FES Naxos Island current weather conditions

sailwx.info

Wind from 157 at 6 knots gusting 14

Air temperature 17.8° C
Dewpoint 12.4° C

Last reported at 2019-Dec-07 12:08 UTC.
Time now 2019-Dec-07 12:36 UTC

Location: N 37°06' E 025°24'.
View on Google Maps.

See reports from other nearby stations

  
Tides and Currents Weather Stations Pressure Air Temp Water Temp Dewpoint Dewpoint Depression Visibility Wind Speed Wind Dir Waves Ship Positions
date/time (UTC)wind fromknots sea level pressurealtimeterstation pressurevisibilityair tempwater tempwave heightnotes
2019-Dec-07 12:08 157 6 gusting 14 17.8
2019-Dec-07 11:50 164 6 gusting 16 17.8
2019-Dec-07 11:27 176 6 gusting 13 17.8
2019-Dec-07 11:18 197 3 gusting 10 17.2
2019-Dec-07 11:09 165 5 gusting 14 17.2
2019-Dec-07 11:00 177 6 gusting 14 17.2
2019-Dec-07 10:51 183 7 gusting 14 17.2
2019-Dec-07 10:42 198 5 gusting 13 17.8
2019-Dec-07 10:33 162 3 gusting 8 17.8
2019-Dec-07 10:24 152 4 gusting 12 17.8
2019-Dec-07 10:15 151 3 gusting 12 17.8
2019-Dec-07 10:06 140 1 gusting 8 17.2
2019-Dec-07 09:57 104 0 gusting 6 17.2
2019-Dec-07 09:48 093 1 gusting 10 16.7
2019-Dec-07 09:39 079 0 gusting 7 16.1
2019-Dec-07 09:19 15.6
2019-Dec-07 09:10 15.6
2019-Dec-07 09:01 15.6
2019-Dec-07 08:52 15.6
2019-Dec-07 08:43 15.6
2019-Dec-07 08:34 15.6
2019-Dec-07 08:25 15.6
2019-Dec-07 08:16 15.6
2019-Dec-07 08:07 15.0
2019-Dec-07 07:58 15.0
2019-Dec-07 07:49 15.0
2019-Dec-07 07:40 14.4
2019-Dec-07 07:31 050 14.4
2019-Dec-07 07:22 049 1 gusting 6 14.4
2019-Dec-07 07:13 048 4 gusting 6 14.4
2019-Dec-07 07:04 043 1 gusting 4 14.4
2019-Dec-07 06:55 042 1 gusting 4 14.4
2019-Dec-07 06:46 040 14.4
2019-Dec-07 06:37 041 0 gusting 4 13.9
2019-Dec-07 06:28 041 0 gusting 4 13.9
2019-Dec-07 06:19 041 0 gusting 4 13.9
2019-Dec-07 06:10 040 1 gusting 4 13.9
2019-Dec-07 06:01 046 2 gusting 7 13.9
2019-Dec-07 05:52 051 4 gusting 6 13.9
2019-Dec-07 05:43 046 1 gusting 7 13.9
2019-Dec-07 05:34 044 2 gusting 7 13.9
2019-Dec-06 22:34 290 2 gusting 13 13.3
2019-Dec-06 22:25 291 3 gusting 12 13.3
2019-Dec-06 22:16 302 0 gusting 12 13.3
2019-Dec-06 22:07 308 2 gusting 10 13.3
2019-Dec-06 21:58 291 1 gusting 8 13.3
2019-Dec-06 21:49 262 0 gusting 7 13.3
2019-Dec-06 21:40 283 2 gusting 10 13.3
2019-Dec-06 21:31 284 0 gusting 8 13.3
2019-Dec-06 21:22 286 1 gusting 12 13.3
2019-Dec-06 21:13 297 2 gusting 13 13.3
2019-Dec-06 21:04 291 2 gusting 12 13.3
2019-Dec-06 20:55 292 4 gusting 14 13.3
2019-Dec-06 20:46 285 2 gusting 14 13.3
2019-Dec-06 20:37 321 0 gusting 10 13.3
2019-Dec-06 20:28 300 1 gusting 12 13.3
2019-Dec-06 20:19 288 5 gusting 16 13.3
2019-Dec-06 20:10 284 5 gusting 14 13.3
2019-Dec-06 20:01 294 4 gusting 13 13.3
2019-Dec-06 19:52 278 1 gusting 10 13.3
2019-Dec-06 19:43 309 1 gusting 13 13.3
2019-Dec-06 19:34 286 3 gusting 12 13.3
2019-Dec-06 19:25 293 3 gusting 14 13.3
2019-Dec-06 19:16 295 3 gusting 19 13.3
2019-Dec-06 19:07 288 6 gusting 16 13.3
2019-Dec-06 18:58 284 4 gusting 14 13.3
2019-Dec-06 18:49 288 3 gusting 14 13.3
2019-Dec-06 18:40 283 4 gusting 14 13.3
2019-Dec-06 18:31 292 4 gusting 16 13.3
2019-Dec-06 18:22 295 6 gusting 20 13.3
2019-Dec-06 18:13 285 5 gusting 14 13.3
2019-Dec-06 18:04 283 3 gusting 14 13.3
2019-Dec-06 17:55 293 2 gusting 14 13.3
2019-Dec-06 17:46 297 1 gusting 14 13.3
2019-Dec-06 17:37 292 2 gusting 13 13.3
2019-Dec-06 17:28 285 6 gusting 19 13.3
2019-Dec-06 17:19 280 9 gusting 22 13.3
2019-Dec-06 17:10 286 8 gusting 24 13.3
2019-Dec-06 17:01 289 6 gusting 24 13.3
2019-Dec-06 16:52 298 6 gusting 20 13.3
2019-Dec-06 16:43 286 9 gusting 20 13.3
2019-Dec-06 16:34 278 10 gusting 22 13.3
2019-Dec-06 16:25 291 7 gusting 18 13.3
2019-Dec-06 16:16 284 8 gusting 19 13.3
2019-Dec-06 16:07 287 9 gusting 22 13.3
2019-Dec-06 15:58 293 7 gusting 22 13.3
2019-Dec-06 15:49 282 7 gusting 20 13.3
2019-Dec-06 15:40 281 8 gusting 25 13.3
2019-Dec-06 15:31 287 9 gusting 22 13.3
2019-Dec-06 15:22 271 5 gusting 18 13.3
2019-Dec-06 15:13 278 7 gusting 20 13.3
2019-Dec-06 15:04 272 6 gusting 19 13.3
2019-Dec-06 14:55 268 3 gusting 19 13.3
2019-Dec-06 14:46 276 5 gusting 19 13.9
2019-Dec-06 14:37 286 6 gusting 18 13.9
2019-Dec-06 14:28 299 6 gusting 19 13.9
2019-Dec-06 14:19 296 7 gusting 20 13.9
2019-Dec-06 14:10 290 8 gusting 19 13.9
2019-Dec-06 14:01 287 9 gusting 24 14.4
2019-Dec-06 13:52 298 6 gusting 20 14.4
2019-Dec-06 13:43 293 9 gusting 24 14.4
2019-Dec-06 13:34 294 6 gusting 25 14.4
2019-Dec-06 13:25 287 7 gusting 18 14.4
2019-Dec-06 13:16 287 5 gusting 24 14.4
2019-Dec-06 13:07 295 7 gusting 24 15.0
2019-Dec-06 12:58 294 8 gusting 20 14.4
2019-Dec-06 12:49 280 6 gusting 18 14.4
2019-Dec-06 12:40 293 6 gusting 16 14.4
2019-Dec-06 12:31 290 8 gusting 22 14.4
2019-Dec-06 12:17 284 6 gusting 19 14.4
2019-Dec-06 12:08 288 7 gusting 30 14.4
2019-Dec-06 11:59 294 6 gusting 22 14.4
2019-Dec-06 11:50 296 6 gusting 20 14.4
2019-Dec-06 11:41 293 5 gusting 16 14.4
2019-Dec-06 11:32 298 4 gusting 19 14.4
2019-Dec-06 11:23 289 6 gusting 20 14.4
2019-Dec-06 11:14 292 6 gusting 22 14.4
2019-Dec-06 11:05 286 7 gusting 20 15.0
2019-Dec-06 10:56 280 6 gusting 19 14.4
2019-Dec-06 10:47 288 6 gusting 22 14.4
2019-Dec-06 10:38 296 5 gusting 22 13.9
2019-Dec-06 10:29 290 5 gusting 24 14.4
2019-Dec-06 10:20 289 4 gusting 18 14.4
2019-Dec-06 10:11 283 6 gusting 19 14.4
2019-Dec-06 10:02 290 6 gusting 24 14.4
2019-Dec-06 09:53 285 5 gusting 24 14.4
2019-Dec-06 09:44 285 6 gusting 22 14.4
2019-Dec-06 09:27 312 6 gusting 24 13.9
2019-Dec-06 09:18 302 5 gusting 25 14.4
2019-Dec-06 09:09 286 5 gusting 25 13.9
2019-Dec-06 09:00 287 6 gusting 20 13.9
2019-Dec-06 08:51 291 7 gusting 24 13.9
2019-Dec-06 08:42 290 9 gusting 24 13.3
2019-Dec-06 08:33 288 5 gusting 22 13.9
2019-Dec-06 08:24 288 8 gusting 26 13.9
2019-Dec-06 08:15 301 7 gusting 24 13.3
2019-Dec-06 08:06 284 6 gusting 19 13.9
2019-Dec-06 07:57 280 4 gusting 16 13.3
2019-Dec-06 07:48 295 2 gusting 16 13.3
2019-Dec-06 07:39 295 3 gusting 20 13.3
2019-Dec-06 07:30 290 4 gusting 19 13.3
2019-Dec-06 07:21 292 6 gusting 19 13.3
2019-Dec-06 07:12 295 5 gusting 14 13.3
2019-Dec-06 07:03 293 6 gusting 22 13.3
2019-Dec-06 06:54 299 5 gusting 22 13.3
2019-Dec-06 06:45 296 4 gusting 16 12.8
2019-Dec-06 06:36 293 3 gusting 18 13.3
2019-Dec-06 06:27 291 9 gusting 26 12.8
2019-Dec-06 06:18 290 6 gusting 25 13.3
2019-Dec-06 06:09 294 6 gusting 25 13.3
2019-Dec-06 06:00 296 4 gusting 25 13.3
2019-Dec-06 05:51 291 8 gusting 24 13.3
2019-Dec-05 22:29 299 7 gusting 22 12.8
2019-Dec-05 22:20 297 6 gusting 24 12.8
2019-Dec-05 22:11 293 6 gusting 20 12.8
2019-Dec-05 22:02 292 7 gusting 22 12.8
2019-Dec-05 21:53 302 7 gusting 25 12.8
2019-Dec-05 21:44 300 7 gusting 24 12.8
2019-Dec-05 21:35 301 5 gusting 28 13.3
2019-Dec-05 21:26 280 6 gusting 26 12.8
2019-Dec-05 21:17 293 7 gusting 22 12.8
2019-Dec-05 21:08 313 7 gusting 19 13.3
2019-Dec-05 20:59 285 6 gusting 20 12.8
2019-Dec-05 20:50 299 7 gusting 28 13.3
2019-Dec-05 20:41 296 6 gusting 25 13.3
2019-Dec-05 20:32 302 7 gusting 25 13.3
2019-Dec-05 20:23 301 7 gusting 25 13.3
2019-Dec-05 20:14 311 7 gusting 25 13.3
2019-Dec-05 20:05 304 8 gusting 22 13.3
2019-Dec-05 19:56 306 7 gusting 22 13.3
2019-Dec-05 19:47 316 6 gusting 26 12.8
2019-Dec-05 19:38 294 4 gusting 20 12.8
2019-Dec-05 19:29 312 7 gusting 22 12.8
2019-Dec-05 19:20 289 6 gusting 22 12.8
2019-Dec-05 19:11 290 9 gusting 24 12.8
2019-Dec-05 19:02 297 8 gusting 26 12.8
2019-Dec-05 18:53 286 9 gusting 20 12.8
2019-Dec-05 18:44 294 11 gusting 25 12.8
2019-Dec-05 18:35 303 10 gusting 20 12.8
2019-Dec-05 18:26 299 8 gusting 25 12.8
2019-Dec-05 18:17 285 8 gusting 20 12.8
2019-Dec-05 18:08 313 6 gusting 19 12.8
2019-Dec-05 17:59 306 9 gusting 26 12.8
2019-Dec-05 17:50 301 8 gusting 20 12.8
2019-Dec-05 17:41 295 10 gusting 25 12.8
2019-Dec-05 17:32 308 10 gusting 19 12.8
2019-Dec-05 17:23 306 9 gusting 25 12.8
2019-Dec-05 17:14 302 10 gusting 25 12.8
2019-Dec-05 17:05 301 8 gusting 20 12.8
2019-Dec-05 16:56 293 11 gusting 20 12.2
2019-Dec-05 16:47 297 9 gusting 25 12.2
2019-Dec-05 16:38 287 10 gusting 22 12.2
2019-Dec-05 16:29 283 9 gusting 25 12.2
2019-Dec-05 16:20 292 11 gusting 26 12.2
2019-Dec-05 16:11 295 11 gusting 28 12.2
2019-Dec-05 16:02 293 13 gusting 25 12.2
2019-Dec-05 15:53 299 12 gusting 33 12.8
2019-Dec-05 15:36 299 10 gusting 34 12.2
2019-Dec-05 15:27 296 7 gusting 30 12.2
2019-Dec-05 15:18 297 9 gusting 28 12.2
2019-Dec-05 15:09 294 10 gusting 25 12.2
2019-Dec-05 15:00 297 13 gusting 25 12.2
2019-Dec-05 14:51 298 11 gusting 30 12.8
2019-Dec-05 14:42 298 10 gusting 25 12.8
2019-Dec-05 14:33 290 10 gusting 26 12.8
2019-Dec-05 14:24 296 9 gusting 24 12.8
2019-Dec-05 14:15 298 11 gusting 22 12.8
2019-Dec-05 14:06 292 9 gusting 30 13.3
2019-Dec-05 13:57 300 6 gusting 20 13.3
2019-Dec-05 13:48 299 8 gusting 22 13.3
2019-Dec-05 13:39 290 10 gusting 24 13.3
2019-Dec-05 13:30 298 10 gusting 22 13.9
2019-Dec-05 13:21 291 10 gusting 25 13.9
2019-Dec-05 13:12 282 10 gusting 22 13.9
2019-Dec-05 13:03 285 9 gusting 24 13.9
2019-Dec-05 12:54 289 10 gusting 25 13.9
2019-Dec-05 12:45 286 10 gusting 25 13.9
2019-Dec-05 12:36 299 9 gusting 28 13.3
2019-Dec-05 12:24 290 14 gusting 28 13.3
2019-Dec-05 12:15 297 12 gusting 28 13.9
2019-Dec-05 12:06 288 13 gusting 25 13.3